Weather History for Casper, WY

Change the Weather History Date:

Wednesday, January 25, 2012

  Actual Average Record
Temperature  
Mean Temperature 33 °F 25 °F  
Max Temperature 43 °F 35 °F 51 °F (1994)
Min Temperature 22 °F 14 °F -25 °F (1949)
Degree Days  
Heating Degree Days 32 40  
Month to date heating degree days 937 1005  
Since 1 July heating degree days 3837 4134  
Cooling Degree Days 0 0  
Month to date cooling degree days 0 0  
Year to date cooling degree days 0 0  
Moisture  
Dew Point 21 °F    
Average Humidity 59    
Maximum Humidity 69    
Minimum Humidity 49    
Precipitation  
Precipitation 0.00 in 0.02 in 0.33 in (1954)
Month to date precipitation 0.67 0.41  
Year to date precipitation 0.67 0.41  
Snow  
Snow 0.00 in 0.20 in - ()
Month to date snowfall 9.1 7.3  
Since 1 July snowfall 35.8 37.8  
Snow Depth 2.00 in    
Sea Level Pressure  
Sea Level Pressure 30.09 in    
Wind  
Wind Speed 25 mph (SW)    
Max Wind Speed 40 mph    
Max Gust Speed 53 mph    
Visibility 10 miles    
Events      
T = Trace of Precipitation, MM = Missing Value Source: NWS Daily Summary

Daily Weather History Graph

Daily Weather History Graph

Search for Another Location

Airport:

Trip Planner

Search our weather history database for the weather conditions in past years. The results will help you decide how hot, cold, wet, or windy it might be!

Date:

Astronomy

Jan. 25, 2012 Rise Set
Actual Time 7:27 AM MST 5:09 PM MST
Civil Twilight 6:57 AM MST 5:39 PM MST
Nautical Twilight 6:22 AM MST 6:14 PM MST
Astronomical Twilight 5:49 AM MST 6:47 PM MST
Moon 8:23 AM MST (1/25) 8:10 PM MST (1/25)
Length of Visible Light 10h 42m
Length of Day
9h 41m
Waxing Crescent, 7% of the Moon is Illuminated
Jan 25
Waxing Crescent
Jan 30
First Quarter
Feb 7
Full
Feb 14
Last Quarter
Feb 21
New

Hourly Weather History & Observations

Time (MST) Temp. Windchill Dew Point Humidity Pressure Visibility Wind Dir Wind Speed Gust Speed Precip Events Conditions
12:53 AM 21.9 °F 6.2 °F 10.9 °F 63% 30.19 in 10.0 mi SW 21.9 mph 29.9 mph N/A   Clear
1:53 AM 23.0 °F 6.6 °F 12.0 °F 63% 30.18 in 10.0 mi SW 25.3 mph - N/A   Clear
2:53 AM 25.0 °F 8.6 °F 12.9 °F 60% 30.15 in 10.0 mi SW 27.6 mph 36.8 mph N/A   Clear
3:53 AM 26.1 °F 9.8 °F 14.0 °F 60% 30.15 in 9.0 mi SSW 28.8 mph 38.0 mph N/A   Clear
4:53 AM 26.1 °F 10.1 °F 15.1 °F 63% 30.19 in 10.0 mi SW 27.6 mph 34.5 mph N/A   Clear
5:53 AM 27.0 °F 9.6 °F 16.0 °F 63% 30.18 in 10.0 mi SSW 35.7 mph 44.9 mph N/A   Clear
6:53 AM 26.1 °F 8.6 °F 16.0 °F 66% 30.17 in 10.0 mi SSW 34.5 mph 44.9 mph N/A   Clear
7:53 AM 27.0 °F 9.6 °F 17.1 °F 66% 30.14 in 10.0 mi SSW 35.7 mph 44.9 mph N/A   Clear
8:53 AM 27.0 °F 9.6 °F 17.1 °F 66% 30.12 in 10.0 mi SSW 35.7 mph 47.2 mph N/A   Clear
9:53 AM 28.9 °F 11.5 °F 19.9 °F 69% 30.09 in 10.0 mi SSW 40.3 mph 49.5 mph N/A   Clear
10:53 AM 33.1 °F 18.2 °F 21.9 °F 64% 30.11 in 10.0 mi SW 34.5 mph 44.9 mph N/A   Clear
11:53 AM 34.0 °F 20.5 °F 21.9 °F 61% 30.11 in 10.0 mi SSW 28.8 mph 39.1 mph 0.00 in   Clear
12:53 PM 35.6 °F 23.2 °F 24.8 °F 65% 30.00 in 10.0 mi SSW 26.5 mph 39.1 mph N/A   Clear
1:53 PM 37.9 °F 27.1 °F 27.0 °F 65% 30.05 in 10.0 mi South 23.0 mph 26.5 mph N/A   Clear
2:53 PM 37.9 °F 28.2 °F 27.0 °F 65% 30.02 in 10.0 mi South 18.4 mph - N/A   Clear
3:53 PM 39.0 °F 27.4 °F 27.0 °F 62% 29.99 in 10.0 mi SW 28.8 mph 35.7 mph N/A   Clear
4:53 PM 39.9 °F 29.5 °F 27.0 °F 60% 29.99 in 10.0 mi SSW 24.2 mph 27.6 mph N/A   Clear
5:53 PM 39.9 °F 31.4 °F 27.0 °F 60% 30.00 in 10.0 mi WSW 16.1 mph 28.8 mph N/A   Clear
6:53 PM 42.8 °F 34.0 °F 24.8 °F 49% 29.96 in 10.0 mi SW 20.7 mph 36.8 mph N/A   Clear
7:53 PM 39.2 °F 32.0 °F 24.8 °F 56% 30.01 in 10.0 mi West 11.5 mph 20.7 mph N/A   Clear
8:53 PM 36.0 °F 27.5 °F 23.0 °F 59% 30.08 in 10.0 mi West 12.7 mph - N/A   Clear
9:53 PM 34.0 °F 26.0 °F 21.9 °F 61% 30.12 in 10.0 mi WNW 10.4 mph - N/A   Clear
10:53 PM 30.9 °F 26.2 °F 21.9 °F 69% 30.13 in 10.0 mi North 4.6 mph - N/A   Clear
11:53 PM 28.0 °F 20.8 °F 21.0 °F 75% 30.14 in 10.0 mi East 6.9 mph - N/A   Clear